Flag for U.S.A. Weather past 2 weeks in Miami, Florida, U.S.A.

Now
78 °F

Broken clouds.


Feels Like: 81 °F
Forecast: 80 / 87 °F
Wind: 5 mph from West

Location: Miami International Airport

Current Time: Jul 31, 2014 at 8:34:33 PM

Latest Report: Jul 31, 2014 at 7:53 PM


Visibility: 10 mi

Pressure: 30.01 "Hg

Humidity: 87%

Dew point: 74 °F

Location of MiamiLocation

Historic Weather in Miami — Graph

°F

Miami temperature yesterday

Maximum temperature yesterday: 93 °F (at 1:53 PM)
Minimum temperature yesterday: 77 °F (at 5:53 PM)
Average temperature yesterday: 83 °F

Past Weeks' High & Low Weather Summary

 TemperatureHumidityPressure
High95 °F (Jul 28, 1:53 PM)97% (Jul 31, 6:53 PM)30.14 "Hg (Jul 31, 6:53 PM)
Low75 °F (Jul 26, 3:02 PM)40% (Jul 28, 1:53 PM)29.94 "Hg (Jul 30, 3:53 PM)
Average83 °F75%30.04 "Hg
* Reported Jul 16 6:53 PM — Jul 31 6:53 PM, Miami, Weather by CustomWeather, © 2014

Note: Actual official high and low records may vary slightly from our data, if they occured in-between our weather recording intervals... More about our weather records

Advertising

Miami weather history for previous 24 hours

 ConditionsComfort  
Time TempWeatherWind HumidityBarometerVisibility
6:53 PM
Jul 31
76 °FRain. Fog.No wind97%30.00 "Hg4 mi
5:53 PM77 °FHeavy rain. Fog.8 mph90%30.00 "Hg1 mi
4:53 PM81 °FBroken clouds.13 mph77%29.98 "Hg10 mi
3:53 PM88 °FBroken clouds.10 mph63%29.97 "Hg10 mi
2:53 PM90 °FBroken clouds.12 mph59%29.97 "Hg10 mi
1:53 PM91 °FBroken clouds.10 mph57%29.98 "Hg10 mi
12:53 PM90 °FBroken clouds.9 mph57%29.99 "Hg10 mi
11:53 AM87 °FBroken clouds.10 mph65%30.00 "Hg10 mi
10:53 AM88 °FBroken clouds.7 mph65%30.00 "Hg10 mi
9:53 AM87 °FPartly sunny.7 mph67%30.00 "Hg10 mi
8:53 AM84 °FPartly sunny.6 mph77%30.00 "Hg10 mi
7:53 AM81 °FPartly sunny.No wind82%29.98 "Hg10 mi
6:53 AM79 °FPartly cloudy.6 mph84%29.97 "Hg10 mi
5:53 AM78 °FPassing clouds.3 mph90%29.96 "Hg10 mi
4:53 AM78 °FPassing clouds.5 mph90%29.96 "Hg10 mi
3:53 AM79 °FPartly cloudy.3 mph88%29.97 "Hg10 mi
2:53 AM79 °FPartly cloudy.3 mph88%29.98 "Hg10 mi
1:53 AM78 °FPartly cloudy.3 mph87%29.99 "Hg10 mi
12:53 AM80 °FPartly cloudy.3 mph87%29.99 "Hg10 mi
11:53 PM
Jul 30
79 °FPartly cloudy.3 mph90%29.99 "Hg10 mi
10:53 PM80 °FPartly cloudy.3 mph85%30.00 "Hg10 mi
9:53 PM79 °FPassing clouds.3 mph88%29.98 "Hg10 mi
8:53 PM79 °FBroken clouds.5 mph88%29.98 "Hg10 mi
Weather by CustomWeather, © 2014

See weather overviewHow to use our weather pages